Location: Wien
(48.2082°N, 16.3738°E)
Time: 04:13:41
(UTC+02:00)

DOVE 4 - Pass Details

Date: 31 March 2019
Orbit: 587 x 804 km, 97.7° (Epoch: 19 April)

Event Time Altitude Azimuth Distance (km) Brightness Sun altitude
Rises 01:49:33 0° 33° (NNE) 2,868 ? -32.5°
Reaches altitude 10° 01:53:17 10° 67° (ENE) 1,932 ? -32.1°
Maximum altitude 01:54:41 11° 87° (E) 1,830 ? -32.0°
Enters shadow 01:55:10 11° 94° (E) 1,839 ? -32.0°
